Tracking 20083 objects as of 12-Dec-2019
HD Live streaming from Space Station
objects crossing your sky now

COSMOS 2251 DEB

Track COSMOS 2251 DEB now!
10-day predictions


NORAD ID: 34442
Int'l Code: 1993-036SK
Perigee: 631.4 km
Apogee: 734.4 km
Inclination: 74.0 °
Period: 98.3 minutes
Semi major axis: 7053 km
RCS: 0.022 m2 (small)
Launch date: June 16, 1993
Source: Commonwealth of Independent States (former USSR) (CIS)
Launch site: PLESETSK MISSILE AND SPACE COMPLEX (PKMTR)

Note: This is SATELLITE DEBRIS
aabbcc
Your satellite tracking list
Your tracking list is empty




NASA's NSSDC Master Catalog

Two Line Element Set (TLE):
1 34442U 93036SK  19345.43918927  .00000645  00000-0  12076-3 0  9997
2 34442  74.0198  45.4232 0073014   1.7295   8.9299 14.65408177575262
Source of the keplerian elements: AFSPC